GW5985 Weather Reports


time (UTC)temp
C
wind
direction
speed
KPH
gust
KPH
rain 1hr
cm
rain 24hr
cm
rain mn
cm
humidity
%
barometer
mb
20260503072858 20 125 0.0 0.0 0.00 0.00 0.00 99 1017.6
20260503072355 20 122 0.0 0.0 0.00 0.00 0.00 99 1017.5
20260503071852 20 123 0.0 0.0 0.00 0.00 0.00 99 1017.9
20260503071349 20 125 0.0 0.0 0.00 0.00 0.00 99 1017.8
20260503070845 20 122 0.0 0.0 0.00 0.00 0.00 99 1017.9
20260503070343 20 121 0.0 0.0 0.00 0.00 0.00 99 1017.8
20260503060303 21 126 0.0 0.0 0.00 0.00 0.00 99 1018.3
20260503054749 21 122 0.0 0.0 0.00 0.00 0.00 99 1018.3
20260503054246 21 123 0.0 0.0 0.00 0.00 0.00 99 1018.7
20260503053744 21 125 0.0 0.0 0.00 0.00 0.00 99 1018.7
20260503053243 21 127 0.0 0.0 0.00 0.00 0.00 99 1018.8
20260503052738 21 125 0.0 0.0 0.00 0.00 0.00 99 1018.8
20260503052236 21 117 0.0 0.0 0.00 0.00 0.00 99 1018.7
20260503051730 21 119 0.0 0.0 0.00 0.00 0.00 99 1018.5
20260503051228 21 122 0.0 0.0 0.00 0.00 0.00 99 1018.9
20260503050725 21 120 0.0 0.0 0.00 0.00 0.00 99 1018.8
20260503050221 21 131 0.0 0.0 0.00 0.00 0.00 99 1019.1
20260503045719 21 123 0.0 0.0 0.00 0.00 0.00 99 1018.9
20260503045216 21 122 0.0 0.0 0.00 0.00 0.00 99 1019.1
20260503044713 21 109 0.0 0.0 0.00 0.00 0.00 99 1019.0
20260503044210 21 117 0.0 0.0 0.00 0.00 0.00 99 1019.0
20260503043707 21 113 0.0 0.0 0.00 0.00 0.00 99 1018.9
20260503043205 22 112 0.0 0.0 0.00 0.00 0.00 99 1019.1
20260503042700 22 121 0.0 0.0 0.00 0.00 0.00 99 1019.1
20260503042156 22 122 0.0 0.0 0.00 0.00 0.00 99 1019.0
20260503041652 22 121 0.0 0.0 0.00 0.00 0.00 99 1019.3
20260503041150 22 118 0.0 0.0 0.00 0.00 0.00 99 1019.2
20260503040648 22 126 0.0 0.0 0.00 0.00 0.00 99 1019.4
20260503040145 22 128 0.0 0.0 0.00 0.00 0.00 99 1019.4
20260503035642 22 120 0.0 0.0 0.00 0.18 0.18 99 1019.5
20260503035139 22 122 0.0 0.0 0.00 0.18 0.18 99 1019.5
20260503034637 23 120 0.0 0.0 0.00 0.18 0.18 99 1019.5
20260503034134 23 121 0.0 0.0 0.00 0.18 0.18 99 1019.6
20260503033630 23 121 0.0 0.0 0.00 0.18 0.18 99 1019.3
20260503033128 23 120 0.0 0.0 0.00 0.18 0.18 99 1019.4
20260503032627 23 122 0.0 0.0 0.00 0.18 0.18 99 1019.2
20260503032125 23 127 0.0 0.0 0.00 0.18 0.18 99 1019.4
20260503031622 23 122 0.0 0.0 0.00 0.18 0.18 99 1019.2
20260503031119 23 127 0.0 0.0 0.00 0.18 0.18 99 1019.5
20260503030615 23 125 0.0 0.0 0.00 0.18 0.18 99 1019.5
20260503030112 23 121 0.0 0.0 0.00 0.18 0.18 99 1019.3
20260503025609 23 120 0.0 0.0 0.00 0.18 0.18 99 1019.3
20260503025107 23 116 0.0 1.6 0.00 0.18 0.18 99 1019.4
20260503024603 23 123 0.0 0.0 0.00 0.18 0.18 99 1019.3
20260503024100 23 120 0.0 1.6 0.00 0.18 0.18 99 1019.2
20260503023557 23 109 0.0 0.0 0.00 0.18 0.18 99 1019.3
20260503023054 23 122 0.0 0.0 0.00 0.18 0.18 99 1019.3
20260503022550 23 122 0.0 0.0 0.00 0.18 0.18 99 1019.2
20260503022045 23 123 0.0 0.0 0.00 0.18 0.18 99 1019.2
20260503021542 23 125 0.0 0.0 0.00 0.18 0.18 99 1019.0
20260503021039 23 122 0.0 0.0 0.00 0.18 0.18 99 1018.9
20260503020536 23 123 0.0 0.0 0.00 0.18 0.18 99 1018.9
20260503020033 23 118 0.0 1.6 0.00 0.18 0.18 99 1018.9
20260503015529 23 125 0.0 0.0 0.00 0.18 0.18 99 1018.9
20260503015027 23 116 0.0 0.0 0.00 0.18 0.18 99 1018.6
20260503014522 23 120 0.0 0.0 0.00 0.18 0.18 99 1018.7
20260503014021 24 86 1.6 3.2 0.00 0.18 0.18 99 1018.7
20260503013518 24 114 0.0 1.6 0.00 0.18 0.18 99 1018.6
20260503013015 24 98 1.6 3.2 0.00 0.18 0.18 99 1018.7
20260503012513 24 121 0.0 0.0 0.00 0.18 0.18 99 1018.5
20260503012009 24 112 0.0 0.0 0.00 0.18 0.18 99 1018.3
20260503011506 24 104 0.0 0.0 0.00 0.18 0.18 99 1018.3
20260503011003 24 120 0.0 0.0 0.00 0.18 0.18 99 1018.1
20260503010459 24 116 0.0 0.0 0.00 0.18 0.18 99 1018.2
20260503005957 24 112 0.0 0.0 0.00 0.18 0.18 99 1018.2
20260503005454 24 118 0.0 0.0 0.00 0.18 0.18 99 1018.1
20260503004950 24 89 0.0 0.0 0.00 0.18 0.18 99 1018.0
20260503004447 24 121 0.0 0.0 0.00 0.18 0.18 99 1018.0
20260503003945 24 119 0.0 0.0 0.00 0.18 0.18 99 1017.8
20260503003441 24 113 0.0 0.0 0.00 0.18 0.18 99 1018.0
20260503002938 24 121 0.0 0.0 0.00 0.18 0.18 99 1018.0
20260503002435 24 117 0.0 0.0 0.00 0.18 0.18 99 1017.9
20260503001932 24 121 0.0 0.0 0.00 0.18 0.18 99 1017.7
20260503001428 24 118 0.0 0.0 0.00 0.18 0.18 99 1017.9
20260503000926 24 119 0.0 0.0 0.00 0.18 0.18 99 1017.7
20260503000423 25 116 0.0 0.0 0.00 0.18 0.18 99 1017.5
20260502235920 25 118 0.0 0.0 0.00 0.18 0.18 99 1017.5
20260502235417 25 113 0.0 0.0 0.00 0.18 0.18 99 1017.4
20260502234914 25 117 0.0 0.0 0.00 0.18 0.18 99 1017.5
20260502234411 25 122 0.0 0.0 0.00 0.18 0.18 99 1017.3
20260502233908 25 115 0.0 0.0 0.00 0.18 0.18 99 1017.3
20260502233403 25 112 0.0 0.0 0.00 0.18 0.18 99 1017.2
20260502232901 25 119 0.0 0.0 0.00 0.18 0.18 99 1017.0
20260502232357 25 116 0.0 0.0 0.00 0.18 0.18 99 1017.1
20260502231854 25 113 0.0 0.0 0.00 0.18 0.18 99 1017.1
20260502231352 25 117 0.0 0.0 0.00 0.18 0.18 99 1017.1
20260502230850 25 116 0.0 0.0 0.00 0.18 0.18 99 1017.1
20260502230348 25 117 0.0 0.0 0.00 0.18 0.18 99 1017.0
20260502225844 25 114 0.0 0.0 0.00 0.18 0.18 99 1016.9
20260502225341 25 124 0.0 0.0 0.00 0.18 0.18 99 1016.8
20260502224838 25 123 0.0 0.0 0.00 0.18 0.18 99 1016.7
20260502224334 25 122 0.0 0.0 0.00 0.18 0.18 99 1017.0
20260502223831 25 131 0.0 0.0 0.00 0.18 0.18 99 1016.8
20260502223329 25 130 0.0 0.0 0.00 0.18 0.18 99 1017.0
20260502222827 25 127 0.0 0.0 0.00 0.18 0.18 99 1016.7
20260502222324 25 113 0.0 0.0 0.00 0.18 0.18 99 1016.5
20260502221820 25 123 0.0 0.0 0.00 0.18 0.18 99 1016.7
20260502221316 25 120 0.0 1.6 0.00 0.18 0.18 99 1016.5
20260502220814 25 107 0.0 3.2 0.00 0.18 0.18 99 1016.4
20260502220309 25 98 3.2 8.0 0.00 0.18 0.18 99 1016.5
20260502215806 25 74 0.0 1.6 0.00 0.18 0.18 99 1016.5
20260502215305 25 117 0.0 0.0 0.00 0.18 0.18 99 1016.4
20260502214800 25 122 0.0 1.6 0.00 0.18 0.18 99 1016.3
20260502214256 25 119 1.6 4.8 0.00 0.18 0.18 99 1016.3
20260502213754 25 120 0.0 8.0 0.18 0.18 0.18 99 1016.3
20260502213251 25 113 0.0 3.2 0.18 0.18 0.18 99 1016.1
20260502212750 26 126 0.0 1.6 0.18 0.15 0.15 99 1016.1
20260502212248 26 107 1.6 4.8 0.13 0.13 0.13 99 1016.1
20260502211743 26 101 1.6 4.8 0.43 0.13 0.13 97 1016.1
20260502211240 27 118 0.0 1.6 0.13 0.08 0.08 95 1016.1
20260502210737 27 126 0.0 1.6 0.00 0.05 0.05 95 1015.9
20260502210235 26 54 3.2 4.8 0.00 0.05 0.05 94 1016.0
20260502205732 26 121 1.6 4.8 0.00 0.05 0.05 94 1015.9
20260502205228 27 121 0.0 1.6 0.00 0.05 0.05 94 1015.7
20260502204725 27 111 1.6 3.2 0.00 0.05 0.05 92 1016.0
20260502204223 27 122 0.0 0.0 0.00 0.05 0.05 93 1016.0
20260502203720 27 95 1.6 1.6 0.00 0.05 0.05 92 1016.0
20260502203218 27 354 4.8 8.0 0.18 0.05 0.05 89 1015.7
20260502202712 27 117 1.6 3.2 0.18 0.05 0.05 89 1016.0
20260502202211 27 116 3.2 3.2 0.13 0.03 0.03 89 1015.8
20260502201708 27 145 1.6 4.8 0.13 0.03 0.03 87 1015.8
20260502201204 28 95 3.2 4.8 0.00 0.00 0.00 82 1015.8
20260502200700 28 53 1.6 8.0 0.00 0.00 0.00 81 1015.8
20260502200156 29 159 1.6 3.2 0.00 0.00 0.00 80 1016.0
20260502195655 30 120 0.0 8.0 0.00 0.00 0.00 80 1016.0
20260502195151 30 127 3.2 3.2 0.00 0.00 0.00 76 1016.0
20260502194648 30 103 1.6 4.8 0.00 0.00 0.00 76 1015.8
20260502194144 30 114 1.6 9.7 0.00 0.00 0.00 77 1016.0
20260502193641 30 136 1.6 8.0 0.00 0.00 0.00 77 1015.8
20260502193138 30 94 4.8 8.0 0.00 0.00 0.00 75 1015.9
20260502192633 30 23 3.2 4.8 0.00 0.00 0.00 73 1016.0
20260502192131 30 68 3.2 9.7 0.00 0.00 0.00 73 1016.1
20260502191628 31 124 1.6 3.2 0.00 0.00 0.00 70 1015.8
20260502191125 31 219 4.8 8.0 0.00 0.00 0.00 70 1016.1
20260502190623 32 143 3.2 4.8 0.00 0.00 0.00 66 1015.9
20260502190121 33 225 8.0 11.3 0.00 0.00 0.00 66 1015.8
20260502185614 33 148 3.2 4.8 0.00 0.00 0.00 64 1015.8
20260502185112 33 122 0.0 4.8 0.00 0.00 0.00 65 1016.0
20260502184608 32 119 1.6 1.6 0.00 0.00 0.00 65 1016.3
20260502184103 31 166 3.2 8.0 0.00 0.00 0.00 68 1016.0
20260502183600 32 100 1.6 9.7 0.00 0.00 0.00 64 1016.4
20260502183056 32 132 4.8 9.7 0.00 0.00 0.00 66 1016.5
20260502182551 32 109 3.2 8.0 0.00 0.00 0.00 63 1016.4
20260502182047 32 66 6.4 9.7 0.00 0.00 0.00 65 1016.5
20260502181546 33 141 1.6 3.2 0.00 0.00 0.00 61 1016.3
20260502181044 33 207 1.6 9.7 0.00 0.00 0.00 63 1016.4
20260502180541 32 256 4.8 11.3 0.00 0.00 0.00 64 1016.5
20260502170500 32 231 8.0 17.7 0.00 0.00 0.00 64 1016.8
20260502163943 33 126 0.0 3.2 0.00 0.00 0.00 58 1017.2
20260502163439 33 114 1.6 8.0 0.00 0.00 0.00 61 1017.5
20260502162937 31 158 3.2 3.2 0.00 0.00 0.00 64 1017.2
20260502162434 32 132 8.0 9.7 0.00 0.00 0.00 62 1017.8
20260502161931 32 145 3.2 8.0 0.00 0.00 0.00 63 1017.5
20260502161427 31 136 0.0 8.0 0.00 0.00 0.00 63 1017.8
20260502160925 32 246 9.7 11.3 0.00 0.00 0.00 64 1017.7
20260502160423 33 118 0.0 1.6 0.00 0.00 0.00 58 1017.9
20260502151901 31 201 4.8 4.8 0.00 0.00 0.00 67 1018.4
20260502151357 31 205 4.8 4.8 0.00 0.00 0.00 66 1018.4
20260502150855 30 238 4.8 8.0 0.00 0.00 0.00 69 1018.7
20260502150351 30 204 8.0 11.3 0.00 0.00 0.00 71 1018.6
20260502130739 30 109 1.6 4.8 0.00 0.00 0.00 68 1018.6
20260502130237 29 110 1.6 4.8 0.00 0.00 0.00 67 1018.3
20260502123723 28 134 3.2 4.8 0.00 0.00 0.00 77 1018.1
20260502123219 28 163 3.2 4.8 0.00 0.00 0.00 77 1018.1
20260502122716 28 154 4.8 4.8 0.00 0.00 0.00 77 1018.0
20260502122213 28 144 1.6 3.2 0.00 0.00 0.00 79 1017.9
20260502121711 28 124 0.0 3.2 0.00 0.00 0.00 78 1017.7
20260502121209 27 136 1.6 3.2 0.00 0.00 0.00 80 1017.7
20260502120705 27 129 1.6 1.6 0.00 0.00 0.00 81 1017.7
20260502120202 27 125 0.0 1.6 0.00 0.00 0.00 84 1017.7
20260502115700 26 122 0.0 1.6 0.00 0.00 0.00 87 1017.8
20260502115156 24 125 0.0 0.0 0.00 0.00 0.00 98 1017.8
20260502114652 23 121 0.0 0.0 0.00 0.00 0.00 99 1017.5
20260502114149 25 126 0.0 0.0 0.00 0.00 0.00 99 1017.6
20260502113646 23 130 0.0 0.0 0.00 0.00 0.00 99 1017.7
20260502113144 22 131 0.0 0.0 0.00 0.00 0.00 99 1017.6
20260502112642 23 147 0.0 0.0 0.00 0.00 0.00 99 1017.6
20260502112139 22 124 0.0 0.0 0.00 0.00 0.00 99 1017.4
20260502111637 22 122 0.0 0.0 0.00 0.00 0.00 99 1017.6
20260502111134 22 142 0.0 0.0 0.00 0.00 0.00 99 1017.2
20260502110632 22 124 0.0 0.0 0.00 0.00 0.00 99 1017.3
20260502110129 22 128 0.0 0.0 0.00 0.00 0.00 99 1017.3
20260502105626 22 123 0.0 0.0 0.00 0.00 0.00 99 1017.1
20260502105123 22 127 0.0 0.0 0.00 0.00 0.00 99 1017.0
20260502104620 21 127 0.0 0.0 0.00 0.00 0.00 99 1017.1
20260502104118 21 120 0.0 0.0 0.00 0.00 0.00 99 1017.0
20260502103615 21 120 0.0 0.0 0.00 0.00 0.00 99 1016.9
20260502103113 21 124 0.0 0.0 0.00 0.00 0.00 99 1017.0
20260502102610 21 126 0.0 1.6 0.00 0.00 0.00 99 1016.9
20260502102106 21 121 0.0 0.0 0.00 0.00 0.00 99 1016.8
20260502101604 21 123 0.0 0.0 0.00 0.00 0.00 99 1016.9
20260502101102 21 128 0.0 0.0 0.00 0.00 0.00 99 1016.9
20260502100601 21 123 0.0 0.0 0.00 0.00 0.00 99 1016.7
20260502091033 21 119 0.0 0.0 0.00 0.00 0.00 99 1016.3
20260502090529 21 119 0.0 0.0 0.00 0.00 0.00 99 1016.1